DECAYED

CZ-6A DEB, 54578 (Decayed)

Orbit data source: Space-Track

CZ-6A DEB, 54578 was space debris in SSO originally from a launch on Fri, 11 Nov 2022 UTC launched from the Taiyaun Space Center, China (TSC). Debris objects in space refer to the collection of defunct objects orbiting the Earth. Examples of debris include non-operational satellites, rocket bodies, and fragments generated from explosions, collisions, or faulty payload assembly.

Not visible in the next 10 days
Identifier
54578, 2022-151ME
Orbit
Decayed
Country
Flag of CNCN / PRC
Related business
Manufacturer
SAST
Mission
Decayed spacecraft
Bus & Motor
Unknown
Mass
Unknown
Launch date (UTC)
2022-11-11 (4 years ago)
Launch vehicle
Unknown
Launch site
Taiyaun Space Center, China (TSC)
Object type
Payload
Rocket body
Debris
Shape & HBR
Unknown shape, 0.1 m
Radar Cross Section
Medium (>0.1 m² and <1 m²)

Expand to show TLE details & history
Last TLE update: 3 months ago

TLE from 3 months ago
0 CZ-6A DEB
1 54578U 22151ME  26135.19224742  .03965204  19805-1  12227-1 0  9996
2 54578  98.5762 227.5177 0028749 285.8709  73.9394 15.94562099115426
Epoch: 2026-05-15T04:36Z
TLE epoch observation values (Epoch: 2026-05-15T04:36:50.177Z)
Latitude
-0.00002°
Longitude
-74.61846°
Altitude
287.435 km
Speed
7.738 km/s
True Right ascension
15h 10m 04s
True Declination
0° 00' 00"
Sunlit
Object was in full shadow at epoch
Visualization orbit readout
Latitude
Unknown
Longitude
Unknown
Altitude
Unknown
Speed
Unknown
Apparent Right ascension
Unknown
Apparent Declination
Unknown
Sunlit
N/A
Visualization observer readout
Local Sidereal Time
11:49:35
Azimuth
Unknown
Elevation
Unknown
Doppler factor
Unknown
Orbital elements
Apogee altitude
305.618 km
Perigee altitude
267.298 km
Semi-major axis
6,664.595 km
Eccentricity
0.00287
Inclination
98.5762°
RAAN
227.5177°
Arg. of periapsis
285.8709°
True anomaly
74.25629°
Mean anomaly
73.9394°
Eccentric anomaly
74.09782°
Mean motion
3.98917 °/min
Orbital period
90.24 mins
BSTAR
0.012227
Loading maneuver chart data...
Computing Atmospheric mass density...
Loading historical data...
Loading historical data...
Loading historical data...
Loading historical data...
Loading historical data...
Loading historical data...
Loading historical data...

Documentation

Showing up to 5 results
|